#timestamp,LO_Frequency,Hit,StdDev 
1456498815.2,286046998.8,N
1456498835.1,286046999.7,N
1456498836.0,286046999.7,N
1456498855.8,286047000.0,N
1456498875.6,286047003.7,N
1456498895.5,286047002.2,N
1456498915.3,286046999.4,N
1456498935.1,286046995.2,N
1456498955.9,286046995.7,N
1456498975.7,286046993.5,N
1456498995.5,286046996.1,N
1456499015.4,286046993.4,N
1456499035.2,286046996.0,N
1456499055.0,286046995.7,N
1456499055.9,286046995.7,N
1456499075.8,286046995.4,N
1456499095.6,286047001.2,N
1456499115.4,286047001.2,N
1456499135.3,286046999.2,N
1456499155.1,286046995.2,N
1456499156.0,286046995.2,N
1456499175.8,286046995.1,N
1456499195.7,286046995.2,N
1456499215.5,286046994.9,N
1456499235.3,286046993.8,N
1456499255.1,286046998.0,N
1456499275.9,286046995.2,N
1456499295.7,286046997.9,N
1456499315.5,286046997.6,N
1456499335.4,286046999.5,N
1456499355.2,286046998.2,N
1456499375.0,286046999.2,N
1456499375.9,286046999.2,N
1456499395.8,286046997.1,N
1456499415.6,286046997.2,N
1456499435.4,286046999.5,N
1456499455.3,286047002.8,N
1456499475.1,286046999.9,N
1456499476.0,286046999.9,N
1456499495.8,286046999.8,N
1456499515.7,286047002.1,N
1456499535.5,286047000.1,N
1456499555.3,286046999.5,N
1456499575.1,286046998.7,N
1456499595.9,286046999.6,N
1456499615.7,286046996.5,N
1456499635.5,286046995.0,N
1456499655.4,286046998.1,N
1456499675.2,286046998.2,N
1456499695.0,286046998.5,N
1456499695.9,286046998.5,N
1456499715.8,286047000.8,N
1456499735.6,286047000.8,N
1456499755.4,286046999.8,N
1456499775.3,286047000.7,N
1456499795.1,286046999.6,N
1456499796.0,286046999.6,N
1456499815.8,286046996.6,N
1456499835.7,286046998.9,N
1456499855.5,286046999.4,N
1456499875.3,286047001.0,N
1456499895.2,286047002.8,N
1456499915.9,286047002.3,N
1456499935.7,286047002.1,N
1456499955.6,286047002.5,N
1456499975.4,286047002.3,N
1456499995.2,286046999.6,N
1456500015.0,286047000.7,N
1456500015.9,286047000.7,N
1456500035.8,286047000.0,N
1456500055.6,286047000.5,N
1456500075.4,286047000.6,N
1456500095.3,286047000.7,N
1456500115.1,286046999.7,N
1456500135.8,286047002.1,N
1456500155.7,286047003.8,N
1456500175.5,286047007.2,Y
1456500195.3,286047005.2,P
1456500215.2,286047003.8,N
1456500235.9,286047001.9,N
1456500255.7,286047001.7,N
1456500275.6,286047005.7,Y
1456500295.4,286047004.3,P
1456500315.2,286047001.6,N
1456500335.1,286047003.7,P
1456500336.0,286047003.7,Y
1456500355.8,286046999.2,P
1456500375.6,286046997.2,N
1456500395.5,286046997.1,N
1456500415.3,286046997.0,N
1456500435.1,286046993.5,N
1456500455.9,286046990.9,Y
1456500475.7,286046996.0,P
1456500495.5,286046994.3,P
1456500515.4,286046993.1,P
1456500535.2,286046991.5,Y
1456500555.0,286046994.8,P
1456500555.9,286046994.8,P
1456500575.8,286046994.5,P
1456500595.6,286046992.4,Y
1456500615.4,286046999.6,P
1456500635.3,286047000.9,N
1456500655.1,286047004.0,N
1456500675.8,286047004.0,N
1456500695.7,286047003.1,N
1456500715.5,286047001.9,N
1456500735.3,286047002.4,N
1456500755.2,286047001.3,N
1456500775.9,286047003.9,N
1456500795.7,286047001.7,N
1456500815.6,286047002.1,N
1456500835.4,286047002.5,N
1456500855.2,286046999.9,N
1456500875.0,286047002.2,N
1456500876.0,286047002.2,N
1456500895.8,286047000.6,N
1456500915.6,286047005.8,N
1456500935.4,286047003.9,N
1456500955.3,286047008.3,Y
1456500975.1,286047008.9,P
1456500995.8,286047010.0,N
1456501015.7,286047011.0,P
1456501035.5,286047016.5,Y
1456501055.3,286047010.5,P
1456501075.2,286047010.6,P
1456501095.0,286047011.1,P
1456501095.9,286047011.1,Y
1456501115.8,286047004.1,P
1456501135.6,286047004.9,N
1456501155.4,286047003.4,N
1456501175.2,286047004.2,N
1456501195.1,286047004.0,N
1456501196.0,286047004.0,N
1456501215.8,286047002.4,N
1456501235.6,286047001.4,N
1456501255.5,286047003.1,N
1456501275.3,286046999.8,N
1456501295.1,286047000.1,N
1456501315.9,286047000.8,N
1456501335.7,286047001.1,N
1456501355.5,286047001.0,N
1456501375.4,286047001.6,N
1456501395.2,286046999.7,N
1456501415.0,286047000.3,N
1456501415.9,286047000.3,N
1456501435.8,286046997.2,N
1456501455.6,286046995.0,N
1456501475.4,286046997.8,N
1456501495.2,286046999.3,N
1456501515.1,286046997.3,N
1456501516.0,286046997.3,N
1456501535.8,286046995.0,N
1456501555.6,286046997.1,N
1456501575.5,286046997.5,N
1456501595.3,286046993.4,N
1456501615.1,286046994.9,N
1456501635.9,286046992.6,N
1456501655.7,286046992.0,N
1456501675.5,286046992.6,N
1456501695.4,286046993.9,N
1456501715.2,286046997.6,N
1456501735.0,286046993.5,N
1456501735.9,286046993.5,N
1456501755.8,286046993.9,N
1456501775.6,286046992.0,N
1456501795.4,286046990.6,N
1456501815.3,286046994.2,N
1456501835.1,286046992.8,N
1456501836.0,286046992.8,N
1456501855.8,286046988.5,Y
1456501875.7,286046992.6,P
1456501895.5,286046993.1,P
1456501915.3,286046988.6,P
1456501935.2,286046987.8,Y
1456501955.9,286046995.4,P
1456501975.7,286046998.3,N
1456501995.6,286046999.1,N
1456502015.4,286046995.0,N
1456502035.2,286046999.2,N
1456502055.0,286046998.3,N
1456502055.9,286046998.3,N
1456502075.8,286047001.3,N
1456502095.6,286047003.8,N
1456502115.4,286047001.3,N
1456502135.3,286047001.3,N
1456502155.1,286046999.7,N
1456502175.8,286047000.7,N
1456502195.7,286047000.6,N
1456502215.5,286046999.5,N
1456502235.3,286047000.5,N
1456502255.2,286046996.9,N
1456502275.9,286046995.1,N
1456502295.7,286046993.4,N
1456502315.6,286046997.1,N
1456502335.4,286046997.0,N
1456502355.2,286046998.4,N
1456502375.0,286047001.0,N
1456502376.0,286047001.0,N
1456502395.8,286047002.8,N
